#timestamp,LO_Frequency,Hit,StdDev 
1710979215.7,286047002.3,P
1710979235.6,286047004.2,P
1710979255.4,286047004.0,Y
1710979275.2,286047001.2,P
1710979295.1,286046998.5,N
1710979296.0,286046998.5,N
1710979315.8,286047000.2,N
1710979335.7,286047002.0,N
1710979355.5,286047002.0,N
1710979375.3,286047001.6,N
1710979395.2,286047000.2,N
1710979415.0,286047001.0,N
1710979415.9,286047001.0,N
1710979435.8,286047001.2,N
1710979455.6,286047001.1,N
1710979475.4,286047000.0,N
1710979495.3,286047001.7,N
1710979515.1,286047002.3,N
1710979535.8,286047002.8,N
1710979555.7,286047004.1,Y
1710979575.5,286047004.3,P
1710979595.4,286047003.5,N
1710979615.2,286047004.9,P
1710979635.0,286047007.3,Y
1710979635.9,286047007.3,P
1710979655.8,286047003.7,N
1710979675.6,286047004.0,N
1710979695.4,286047003.8,N
1710979715.3,286047003.6,N
1710979735.1,286047004.1,Y
1710979755.9,286047002.3,P
1710979775.7,286047002.5,N
1710979795.5,286046999.8,N
1710979815.4,286047003.7,N
1710979835.2,286047004.1,N
1710979855.1,286047004.3,N
1710979856.0,286047004.3,N
1710979875.8,286047003.6,N
1710979895.6,286047002.2,N
1710979915.5,286047001.8,N
1710979935.3,286047004.1,Y
1710979955.1,286047001.0,P
1710979975.9,286047000.6,N
1710979995.7,286047002.3,N
1710980015.6,286046998.5,N
1710980035.4,286047001.0,N
1710980055.2,286047002.7,N
1710980075.1,286047001.9,N
1710980076.0,286047001.9,N
1710980095.8,286047002.2,N
1710980115.6,286047001.8,N
1710980135.5,286047001.5,N
1710980155.3,286047003.4,N
1710980175.2,286047004.1,Y
1710980195.9,286047002.2,P
1710980215.7,286047000.1,N
1710980235.6,286047004.1,P
1710980255.4,286047003.6,N
1710980275.2,286047003.5,N
1710980295.1,286047003.6,N
1710980296.0,286047003.6,N
1710980315.8,286047003.7,N
1710980335.7,286047004.7,Y
1710980355.5,286047004.4,P
1710980375.3,286047001.7,N
1710980395.2,286047002.5,N
1710980415.0,286047002.0,N
1710980415.9,286047002.0,N
1710980435.8,286047004.0,Y
1710980455.6,286047002.6,P
1710980475.4,286047002.7,P
1710980495.3,286047004.3,P
1710980515.1,286047003.8,Y
1710980535.9,286047000.1,P
1710980555.7,286047004.0,N
1710980575.5,286047002.6,N
1710980595.4,286047000.8,N
1710980615.2,286047002.4,N
1710980635.1,286047004.3,Y
1710980636.0,286047004.3,P
1710980655.8,286047004.3,P
1710980675.6,286047004.0,P
1710980695.5,286047001.3,N
1710980715.3,286047003.3,N
1710980735.2,286047003.9,Y
1710980755.9,286047000.9,P
1710980775.7,286046998.2,N
1710980795.6,286047002.3,N
1710980815.4,286047004.1,N
1710980835.2,286047003.9,N
1710980855.1,286047003.5,N
1710980856.0,286047003.5,N
1710980875.8,286047002.9,N
1710980895.7,286047004.6,N
1710980915.5,286047005.5,Y
1710980935.3,286047002.7,P
1710980955.2,286047000.9,P
1710980975.0,286047001.1,N
1710980975.9,286047001.1,N
1710980995.8,286047002.4,N
1710981015.6,286047004.3,Y
1710981035.4,286047002.1,P
1710981055.3,286047004.2,P
1710981075.1,286047005.9,P
1710981095.9,286047005.5,Y
1710981115.7,286047002.3,P
1710981135.5,286047002.2,P
1710981155.4,286047002.1,P
1710981175.2,286047003.1,Y
1710981195.1,286047003.9,P
1710981196.0,286047003.9,P
1710981215.8,286047006.0,P
1710981235.6,286047005.0,Y
1710981255.5,286047000.9,P
1710981275.3,286047000.5,N
1710981295.2,286047002.2,N
1710981315.9,286047002.3,N
1710981335.7,286047000.8,N
1710981355.6,286047000.6,N
1710981375.4,286046998.2,N
1710981395.2,286046997.7,N
1710981415.1,286046998.0,N
1710981416.0,286046998.0,N
1710981435.8,286046995.7,N
1710981455.7,286046993.7,N
1710981475.5,286046997.9,N
1710981495.3,286046998.0,N
1710981515.2,286046997.3,N
1710981535.0,286046999.6,N
1710981535.9,286046999.6,N
1710981555.8,286047002.7,N
1710981575.6,286046999.9,N
1710981595.4,286046999.7,N
1710981615.3,286047002.4,N
1710981635.1,286047003.9,N
1710981655.8,286047011.9,Y
1710981675.7,286047006.8,P
1710981695.5,286047008.9,N
1710981715.4,286047007.7,N
1710981735.2,286047007.9,N
1710981755.0,286047008.3,N
1710981755.9,286047008.3,N
1710981775.8,286047007.7,N
1710981795.6,286047007.2,N
1710981815.4,286047007.2,N
1710981835.3,286047007.6,Y
1710981855.1,286047000.7,P
1710981875.9,286046998.8,N
1710981895.7,286046998.9,N
1710981915.5,286046998.6,N
1710981935.4,286046998.6,N
1710981955.2,286046998.4,N
1710981975.0,286046996.9,N
1710981975.9,286046996.9,N
1710981995.8,286046997.7,N
1710982015.6,286046999.2,N
1710982035.5,286046996.8,N
1710982055.3,286046999.4,N
1710982075.1,286046999.4,N
1710982095.9,286046999.3,N
1710982115.7,286046998.7,N
1710982135.5,286046998.9,N
1710982155.4,286047000.6,N
1710982175.2,286047000.5,N
1710982195.1,286047000.8,N
1710982196.0,286047000.8,N
1710982215.8,286046998.4,N
1710982235.6,286047000.7,N
1710982255.5,286047001.1,N
1710982275.3,286046999.2,N
1710982295.1,286046999.5,N
1710982315.9,286046999.4,N
1710982335.7,286046997.4,N
1710982355.6,286046997.3,N
1710982375.4,286046997.1,N
1710982395.2,286046999.6,N
1710982415.1,286046997.3,N
1710982416.0,286046997.3,N
1710982435.8,286046999.2,N
1710982455.6,286046998.7,N
1710982475.5,286046999.7,N
1710982495.3,286047003.7,N
1710982515.2,286047005.8,Y
1710982535.9,286047003.0,P
1710982555.7,286047006.0,P
1710982575.6,286047005.5,N
1710982595.4,286047003.0,N
1710982615.2,286047005.0,N
1710982635.1,286047003.1,N
1710982636.0,286047003.1,N
1710982655.8,286047007.4,Y
1710982675.7,286047001.4,P
1710982695.5,286047001.8,N
1710982715.4,286047003.7,P
1710982735.2,286047005.5,Y
1710982755.0,286047001.3,P
1710982755.9,286047001.3,N
1710982775.8,286047005.4,P
1710982795.6,286047003.0,N
